Weather 🌤️

Recent data

Temperatures

Wind

Pressure

Humidity & Precipitation

Last data
obsTime qcStatus tempAvg heatindexAvg windspeedAvg windgustAvg winddirAvg pressureAvg humidityAvg precipRate precipTotal
2026-09-02 13:04:52 1 24.9 24.8 2.6 9 218 1001.19 50.2 0 0
2026-09-02 12:59:52 1 24.9 24.7 3.7 9 235 1001.19 50.3 0 0
2026-09-02 12:54:54 1 24.9 24.7 3 9 213 1001.19 50.6 0 0
2026-09-02 12:49:53 1 24.8 24.7 3.7 9 222 1001.19 51 0 0
2026-09-02 12:44:52 1 24.7 24.6 2.7 9 216 1001.36 51 0 0
2026-09-02 12:39:52 1 24.8 24.6 5.9 8.7 287 1001.53 51 0 0
2026-09-02 12:34:52 1 24.7 24.6 2.6 6.1 214 1001.53 51.5 0 0
2026-09-02 12:29:52 1 24.5 24.4 2 6.1 200 1001.53 52 0 0
2026-09-02 12:24:51 1 24.5 24.3 2.2 6.1 203 1001.69 52 0 0
2026-09-02 12:19:55 1 24.5 24.3 3.1 6.1 209 1001.69 52 0 0
2026-09-02 12:14:54 1 24.4 24.3 2.4 6.1 204 1001.53 52 0 0
2026-09-02 12:09:52 1 24.2 24.1 2.8 6.1 164 1001.53 52.2 0 0

Hourly data

Temperatures

Wind

Pressure

Humidity & Precipitation

Last data
obsTime qcStatus tempAvg heatindexAvg windspeedAvg windgustAvg winddirAvg pressureAvg humidityAvg precipRate precipTotal
2026-09-02 11:59:52 1 23.1 22.8 2.5 6.1 201 1001.53 54.3 0 0
2026-09-02 10:59:52 1 20.6 20.5 2.2 5.6 219 1001.53 58.6 0 0
2026-09-02 09:59:51 0 19.2 19.2 1 3.6 228 1001.19 60.8 0 0
2026-09-02 08:59:54 0 18.6 18.6 0.3 2.9 197 1000.85 61 0 0
2026-09-02 07:59:53 0 18.5 18.5 0.3 2.9 185 1000.51 60.7 0 0
2026-09-02 06:59:52 0 18.8 18.8 0.5 2.6 177 1000 59.3 0 0
2026-09-02 05:59:56 0 19.7 19.7 0.6 4 215 1000.17 56.8 0 0
2026-09-02 04:59:54 0 20.3 20.3 1.1 4.2 226 1000 55.3 0 0
2026-09-02 03:59:53 0 20.9 20.8 1.6 5.9 227 1000 53.7 0 0
2026-09-02 02:59:54 0 21.4 21 1.1 4.2 227 1000 52.5 0 0
2026-09-02 01:59:56 0 22 21.6 1.6 6.2 222 1000 51.6 0 0
2026-09-02 00:59:56 0 22.6 22.2 2.1 7.6 229 1000 49.8 0 0
2026-09-01 23:59:56 0 23.1 22.7 3.7 7 227 999.66 47.6 0 0
2026-09-01 22:59:51 0 23.8 23.5 2.6 6.1 227 999.66 46 0 0
2026-09-01 21:59:56 0 24.6 24.2 2.1 5.3 227 999.32 43.3 0 0
2026-09-01 20:59:56 0 25.3 24.9 1.1 6.3 236 998.65 41.4 0 0
2026-09-01 19:59:53 1 25.9 25.7 3.4 10.8 288 998.31 43.8 0 0
2026-09-01 18:59:55 1 26.2 26.1 3.1 10.1 251 998.31 46.1 0 0
2026-09-01 17:59:54 1 26.1 26 4.1 11.4 249 998.65 46.9 0 0
2026-09-01 16:59:53 1 25.8 25.7 3.8 10.7 257 998.99 48.7 0 0
2026-09-01 15:59:56 1 25.2 25.1 3.6 10.9 264 999.32 50.3 0 0
2026-09-01 14:59:55 1 24.7 24.5 3.7 8.8 251 1000 52.1 0 0
2026-09-01 13:59:55 1 24.2 24 3.2 7.5 213 1000.34 53.5 0 0
2026-09-01 12:59:55 1 23.4 23.3 3.1 7.2 201 1001.02 56 0 0